Aeroporto :







RITROVATECI SU...

 
LOGIN :

Iscrizione | Disclaimer

   EN    FR    IT 

 









Sommario :    VFR   VFR Marginale   IFR   IFR Intensivo   IFR Molto Intensivo
Visibilità : 
Base nubi : 
>= 8 km
>= 3000ft
5 / 8 km
1000 / 3000 ft
1500m / 5 km
500 / 1000 ft
800 / 1500m
200 / 500 ft
< 800m
< 200 ft
Simboli :   Temporali  Nebbia  Neve Forte  Precipitazioni Forti  Vento > 20 kt






- Altitudine del aeroporto : 76 ft
- Codice IATA : EGS


BIEG - Egilsstaðir

ULTIMO METAR :
  • 060600Z 01007KT 9000 -RA OVC030 02/01 Q0973 R04/290195

METARs OBSOLETI :
  • 060500Z 02006KT 9999 -RA OVC028 01/01 Q0973 R04/790193
  • 060400Z 35009KT 9999 -RA BKN030 01/01 Q0974 R04/790193

TAF TAF BIEG
Valido dal 06 a 06 ore il 07 a 06 ore UTC


060455Z 0606/0706 13015G25KT 9999 -RADZ FEW020 BKN030 TX07/0612Z TNM01/0703Z
TEMPO 0610/0614 12025G35KT
BECMG 0614/0616 22025G35KT NSW SCT040
BECMG 0623/0701 22023KT



MetMap, La meteo Aeronautica in un colpo d'occhio ! - Copyright ORBIFLY Dicembre 2007 - Disclaimer

ORBIFLY MET'MAP TEAM :

Programmazione e sviluppo : Alexandra Zaïnal
Concezione : Baudouin d'Aumeries
Aiuto per la programmazione : Marc-Olivier Méhu
Supporto tecnico e logistico : Manuel Goepfert
Aiuto per la traduzione : Arnaldo La Scala

Contatto : metmap@orbifly.com




FONTI E CREDITI :

   NOAA